User: anonymous   Login
Location: DaltonSkyGazer Observatory
(42.4858°N, 73.1565°W)
Time: 06:12:27
(UTC-04:00)
Language:

Helios 1B - Orbit

View from above orbital plane
View from above orbital plane
View from above satellite
View from above satellite

Ground track
Ground track

The orbit data is extracted from the following two-line orbital elements,

1 25977U 99064A   15149.16716808  .00000677  00000-0  93400-4 0  9995
2 25977 098.1410 237.2843 0001783 141.0839 219.0502 14.81470323832925
Epoch (UTC): 29 May 2015 04:00:43
Eccentricity: 0.0001783
inclination: 98.1410°
perigee height: 623 km
apogee height: 626 km
right ascension of ascending node: 237.2843°
argument of perigee: 141.0839°
revolutions per day: 14.81470323
mean anomaly at epoch: 219.0502°
orbit number at epoch: 83292

The dashed part of the orbit path shows where the satellite is in the earth's shadow,  

DLR